Weather History for Findlay, OH

Change the Weather History Date:

Wednesday, September 3, 2014

  Actual Average Record
Temperature  
Mean Temperature 72 °F -  
Max Temperature 86 °F 77 °F 95 °F (2008)
Min Temperature 61 °F 58 °F 48 °F (1976)
Cooling Degree Days 8    
Growing Degree Days 22 (Base 50)    
Moisture  
Dew Point 62 °F    
Average Humidity 83    
Maximum Humidity 97    
Minimum Humidity 36    
Precipitation  
Precipitation 0.00 in - - ()
Sea Level Pressure  
Sea Level Pressure 30.02 in    
Wind  
Wind Speed 4 mph (SSW)    
Max Wind Speed 10 mph    
Max Gust Speed -    
Visibility 4 miles    
Events Fog    
Averages and records for this station are not official NWS values.
T = Trace of Precipitation, MM = Missing Value Source: NWS Daily Summary

Daily Weather History Graph

Daily Weather History Graph

Search for Another Location

Airport:

Trip Planner

Search our weather history database for the weather conditions in past years. The results will help you decide how hot, cold, wet, or windy it might be!

Date:

Astronomy

Sep. 03, 2014 Rise Set
Actual Time 7:03 AM EDT 8:03 PM EDT
Civil Twilight 6:35 AM EDT 8:31 PM EDT
Nautical Twilight 6:01 AM EDT 9:05 PM EDT
Astronomical Twilight 5:26 AM EDT 9:40 PM EDT
Moon 3:46 PM EDT (9/3) 12:54 AM EDT (9/3)
Length of Visible Light 13h 56m
Length of Day
13h 00m
Waxing Gibbous, 63% of the Moon is Illuminated
Sep 3
Waxing Gibbous
Sep 8
Full
Sep 15
Last Quarter
Sep 24
New
Oct 1
First Quarter

Hourly Weather History & Observations

Time (EDT) Temp. Heat Index Dew Point Humidity Pressure Visibility Wind Dir Wind Speed Gust Speed Precip Events Conditions
12:53 AM 64.9 °F - 63.0 °F 93% 29.96 in 8.0 mi SSW 5.8 mph - N/A   Clear
1:53 AM 66.0 °F - 63.0 °F 90% 29.96 in 5.0 mi SW 4.6 mph - N/A   Clear
2:53 AM 66.0 °F - 64.0 °F 93% 29.96 in 6.0 mi SW 6.9 mph - N/A   Clear
3:45 AM 62.1 °F - 60.1 °F 93% 29.99 in 2.5 mi SSW 4.6 mph - N/A   Clear
3:53 AM 63.0 °F - 61.0 °F 93% 29.96 in 3.0 mi SSW 4.6 mph - N/A   Clear
3:56 AM 63.0 °F - 61.0 °F 93% 29.99 in 1.8 mi SSW 3.5 mph - N/A   Clear
4:05 AM 63.0 °F - 61.0 °F 93% 29.99 in 3.0 mi SSW 3.5 mph - N/A   Clear
4:18 AM 64.0 °F - 62.1 °F 93% 29.99 in 2.5 mi South 3.5 mph - N/A   Clear
4:23 AM 63.0 °F - 61.0 °F 93% 29.99 in 1.0 mi Calm Calm - N/A   Mist
4:30 AM 63.0 °F - 62.1 °F 97% 29.99 in 0.5 mi SSW 3.5 mph - N/A Fog Fog
4:36 AM 64.0 °F - 62.1 °F 93% 30.00 in 1.0 mi South 3.5 mph - N/A   Mist
4:44 AM 63.0 °F - 61.0 °F 93% 30.00 in 2.5 mi South 3.5 mph - N/A   Partly Cloudy
4:53 AM 63.0 °F - 61.0 °F 93% 29.98 in 1.8 mi SSW 3.5 mph - N/A   Partly Cloudy
4:56 AM 63.0 °F - 61.0 °F 93% 30.00 in 0.8 mi SSW 3.5 mph - N/A   Mist
5:17 AM 64.0 °F - 62.1 °F 93% 30.01 in 0.2 mi Calm Calm - N/A Fog Fog
5:37 AM 64.9 °F - 63.0 °F 93% 30.01 in 0.2 mi Calm Calm - N/A Fog Fog
5:44 AM 64.0 °F - 63.0 °F 96% 30.01 in 0.5 mi Calm Calm - N/A Fog Fog
5:53 AM 64.0 °F - 63.0 °F 96% 29.99 in 0.2 mi Calm Calm - N/A Fog Fog
6:09 AM 63.0 °F - 62.1 °F 97% 30.01 in 0.5 mi South 3.5 mph - N/A Fog Fog
6:22 AM 61.0 °F - 60.1 °F 97% 30.01 in 2.0 mi SSE 4.6 mph - N/A   Partly Cloudy
6:31 AM 61.0 °F - 59.0 °F 93% 30.02 in 1.0 mi South 4.6 mph - N/A   Mist
6:37 AM 61.0 °F - 60.1 °F 97% 30.02 in 0.2 mi South 4.6 mph - N/A Fog Fog
6:53 AM 61.0 °F - 60.1 °F 97% 30.00 in 0.2 mi Calm Calm - N/A Fog Fog
7:53 AM 63.0 °F - 62.1 °F 97% 30.03 in 0.2 mi South 3.5 mph - N/A Fog Fog
8:53 AM 66.9 °F - 64.9 °F 93% 30.04 in 0.2 mi SW 3.5 mph - N/A Fog Fog
9:53 AM 69.1 °F - 66.9 °F 93% 30.05 in 0.2 mi SW 3.5 mph - N/A Fog Fog
10:04 AM 69.1 °F - 66.9 °F 93% 30.07 in 0.8 mi South 3.5 mph - N/A   Overcast
10:13 AM 69.1 °F - 66.9 °F 93% 30.07 in 1.2 mi Calm Calm - N/A   Overcast
10:25 AM 69.1 °F - 68.0 °F 96% 30.07 in 3.0 mi SSW 4.6 mph - N/A   Overcast
10:44 AM 70.0 °F - 66.9 °F 90% 30.07 in 5.0 mi Calm Calm - N/A   Overcast
10:53 AM 71.1 °F - 68.0 °F 90% 30.05 in 5.0 mi WSW 4.6 mph - N/A   Overcast
11:22 AM 75.0 °F - 68.0 °F 79% 30.07 in 9.0 mi South 3.5 mph - N/A   Scattered Clouds
11:53 AM 77.0 °F - 66.9 °F 71% 30.05 in 10.0 mi Variable 3.5 mph - N/A   Clear
12:53 PM 79.0 °F - 62.1 °F 56% 30.04 in 10.0 mi South 3.5 mph - N/A   Mostly Cloudy
1:53 PM 82.0 °F 82.1 °F 59.0 °F 45% 30.03 in 10.0 mi SW 6.9 mph - N/A   Scattered Clouds
2:53 PM 82.9 °F 82.8 °F 59.0 °F 44% 30.03 in 10.0 mi SSW 4.6 mph - N/A   Partly Cloudy
3:53 PM 84.9 °F 83.6 °F 55.0 °F 36% 30.02 in 10.0 mi Variable 6.9 mph - N/A   Partly Cloudy
4:53 PM 84.0 °F 83.0 °F 55.9 °F 38% 30.01 in 10.0 mi WSW 10.4 mph - N/A   Clear
5:53 PM 82.9 °F 82.0 °F 55.0 °F 38% 30.01 in 10.0 mi SW 8.1 mph - N/A   Clear
6:53 PM 81.0 °F 81.1 °F 57.9 °F 45% 30.01 in 10.0 mi SW 5.8 mph - N/A   Clear
7:53 PM 75.9 °F - 61.0 °F 60% 30.01 in 10.0 mi SSW 3.5 mph - N/A   Clear
8:53 PM 70.0 °F - 61.0 °F 73% 30.02 in 10.0 mi SSE 5.8 mph - N/A   Clear
9:53 PM 69.1 °F - 61.0 °F 75% 30.04 in 10.0 mi Calm Calm - N/A   Clear
10:53 PM 66.9 °F - 61.0 °F 81% 30.05 in 10.0 mi South 4.6 mph - N/A   Clear
11:53 PM 64.0 °F - 60.1 °F 87% 30.05 in 10.0 mi SSE 5.8 mph - N/A   Clear